Zurück zum Katalog

OPS 9454

AktivMilitärMEO
NORAD 10941·PAYLOAD·🇺🇸 United States

Gestartet Jun 10, 1978 von Cape Canaveral Space Force Station

Loading…

Nächste Überflüge (nächste 24 Stunden)

TLE

AktuellSource: Mike McCants

Epoche: Sep 15, 2026, 18:04 UTC

1 10941U 78058A   26258.75332926  .00000000  00000-0  00000-0 0    06
2 10941  10.6700  17.1086 1501201  67.3268 307.8434  1.00107171  4580

Verfolge OPS 9454 in Echtzeit mit AllMySat

Download on the App Store